| time (UTC) | temp F | wind direction | speed knots | gust knots | rain 1hr in | rain 24hr in | rain mn in | humidity % | barometer mb |
| 20260504023528 | 55 | 222 | 0.0 | 0.9 | 0.00 | 0.02 | 0.00 | 90 | 1015.6 |
| 20260504022526 | 55 | 227 | 0.9 | 1.7 | 0.00 | 0.02 | 0.00 | 90 | 1015.7 |
| 20260504021606 | 55 | 234 | 0.0 | 0.9 | 0.00 | 0.02 | 0.00 | 89 | 1015.6 |
| 20260504020544 | 56 | 229 | 0.0 | 0.9 | 0.00 | 0.02 | 0.00 | 88 | 1015.7 |
| 20260504015521 | 56 | 229 | 0.0 | 1.7 | 0.00 | 0.02 | 0.00 | 87 | 1015.7 |
| 20260504014519 | 56 | 286 | 0.0 | 0.9 | 0.00 | 0.02 | 0.00 | 87 | 1015.7 |
| 20260504013517 | 56 | 283 | 0.0 | 0.9 | 0.00 | 0.02 | 0.00 | 88 | 1015.8 |
| 20260504012517 | 56 | 278 | 0.0 | 0.9 | 0.00 | 0.02 | 0.00 | 88 | 1015.8 |
| 20260504011533 | 56 | 242 | 0.0 | 0.9 | 0.00 | 0.03 | 0.00 | 88 | 1015.9 |
| 20260504010553 | 56 | 292 | 0.9 | 1.7 | 0.00 | 0.03 | 0.00 | 88 | 1016.0 |
| 20260504005530 | 56 | 266 | 0.0 | 0.9 | 0.00 | 0.03 | 0.00 | 88 | 1015.9 |
| 20260504004528 | 56 | 286 | 0.9 | 1.7 | 0.00 | 0.03 | 0.00 | 88 | 1016.0 |
| 20260504003528 | 57 | 274 | 0.0 | 0.9 | 0.00 | 0.03 | 0.00 | 88 | 1016.0 |
| 20260504002524 | 57 | 286 | 0.0 | 0.9 | 0.00 | 0.03 | 0.00 | 87 | 1016.2 |
| 20260504001526 | 57 | 282 | 0.9 | 2.6 | 0.00 | 0.03 | 0.00 | 86 | 1016.2 |
| 20260504000522 | 57 | 233 | 0.9 | 1.7 | 0.00 | 0.03 | 0.00 | 86 | 1016.2 |
| 20260503235539 | 57 | 234 | 0.9 | 1.7 | 0.00 | 0.03 | 0.00 | 86 | 1016.1 |
| 20260503234539 | 57 | 0.0 | 0.0 | 0.00 | 0.03 | 0.00 | 86 | 1016.2 | |
| 20260503233516 | 56 | 0.0 | 0.0 | 0.00 | 0.03 | 0.00 | 86 | 1016.3 | |
| 20260503232533 | 57 | 0.0 | 0.0 | 0.00 | 0.03 | 0.00 | 86 | 1016.2 | |
| 20260503231532 | 57 | 279 | 0.0 | 1.7 | 0.00 | 0.03 | 0.00 | 86 | 1016.2 |
| 20260503230550 | 57 | 244 | 0.0 | 0.9 | 0.00 | 0.03 | 0.00 | 87 | 1016.2 |
| 20260503225528 | 57 | 280 | 0.0 | 0.9 | 0.00 | 0.03 | 0.03 | 87 | 1016.2 |
| 20260503224526 | 57 | 299 | 0.0 | 1.7 | 0.00 | 0.03 | 0.03 | 86 | 1016.2 |
| 20260503223549 | 57 | 260 | 0.0 | 1.7 | 0.00 | 0.03 | 0.03 | 86 | 1016.3 |
| 20260503222523 | 57 | 277 | 0.0 | 1.7 | 0.00 | 0.03 | 0.03 | 87 | 1016.4 |
| 20260503221541 | 57 | 277 | 0.0 | 1.7 | 0.00 | 0.03 | 0.03 | 87 | 1016.3 |
| 20260503220519 | 57 | 269 | 0.0 | 0.9 | 0.00 | 0.03 | 0.03 | 88 | 1016.2 |
| 20260503215517 | 57 | 340 | 0.0 | 0.9 | 0.00 | 0.03 | 0.03 | 88 | 1016.2 |
| 20260503214515 | 58 | 253 | 0.0 | 0.9 | 0.00 | 0.03 | 0.03 | 88 | 1016.1 |
| 20260503213533 | 58 | 246 | 0.0 | 0.9 | 0.00 | 0.03 | 0.03 | 87 | 1016.1 |
| 20260503212533 | 58 | 261 | 0.0 | 1.7 | 0.00 | 0.03 | 0.03 | 87 | 1016.0 |
| 20260503211530 | 58 | 278 | 0.0 | 1.7 | 0.00 | 0.03 | 0.03 | 87 | 1015.8 |
| 20260503210531 | 58 | 283 | 0.0 | 1.7 | 0.00 | 0.03 | 0.03 | 87 | 1015.9 |
| 20260503205526 | 58 | 281 | 0.0 | 1.7 | 0.00 | 0.03 | 0.03 | 86 | 1015.7 |
| 20260503204526 | 58 | 279 | 0.0 | 1.7 | 0.00 | 0.03 | 0.03 | 85 | 1015.6 |
| 20260503203522 | 59 | 278 | 0.0 | 1.7 | 0.00 | 0.03 | 0.03 | 84 | 1015.4 |
| 20260503202521 | 59 | 278 | 0.0 | 0.9 | 0.00 | 0.03 | 0.03 | 84 | 1015.4 |
| 20260503201520 | 59 | 284 | 0.0 | 2.6 | 0.00 | 0.03 | 0.03 | 83 | 1015.2 |
| 20260503200517 | 59 | 312 | 0.9 | 3.5 | 0.00 | 0.03 | 0.03 | 82 | 1015.1 |
| 20260503195515 | 59 | 273 | 0.9 | 5.2 | 0.00 | 0.03 | 0.03 | 82 | 1015.0 |
| 20260503194533 | 60 | 308 | 0.9 | 5.2 | 0.00 | 0.03 | 0.03 | 81 | 1014.9 |
| 20260503193532 | 60 | 268 | 0.9 | 1.7 | 0.00 | 0.03 | 0.03 | 81 | 1014.8 |
| 20260503192530 | 60 | 308 | 1.7 | 5.2 | 0.00 | 0.03 | 0.03 | 81 | 1014.7 |
| 20260503191548 | 61 | 250 | 1.7 | 5.2 | 0.00 | 0.03 | 0.03 | 80 | 1014.6 |
| 20260503190546 | 62 | 271 | 1.7 | 6.1 | 0.00 | 0.03 | 0.03 | 79 | 1014.5 |
| 20260503185524 | 63 | 264 | 0.9 | 2.6 | 0.00 | 0.03 | 0.03 | 78 | 1014.4 |
| 20260503184543 | 62 | 307 | 1.7 | 6.1 | 0.00 | 0.03 | 0.03 | 78 | 1014.4 |
| 20260503183522 | 63 | 329 | 3.5 | 7.8 | 0.00 | 0.03 | 0.03 | 80 | 1014.3 |
| 20260503182519 | 62 | 291 | 1.7 | 7.0 | 0.00 | 0.03 | 0.03 | 82 | 1014.3 |
| 20260503181517 | 63 | 279 | 0.9 | 5.2 | 0.00 | 0.03 | 0.03 | 79 | 1014.3 |
| 20260503180515 | 64 | 273 | 0.9 | 5.2 | 0.00 | 0.03 | 0.03 | 79 | 1014.3 |
| 20260503175534 | 62 | 255 | 0.9 | 3.5 | 0.00 | 0.03 | 0.03 | 81 | 1014.3 |
| 20260503174532 | 62 | 313 | 3.5 | 9.6 | 0.00 | 0.03 | 0.03 | 80 | 1014.4 |
| 20260503173531 | 63 | 300 | 1.7 | 5.2 | 0.00 | 0.03 | 0.03 | 79 | 1014.5 |
| 20260503172528 | 64 | 295 | 1.7 | 7.0 | 0.00 | 0.03 | 0.03 | 77 | 1014.5 |
| 20260503171526 | 65 | 280 | 1.7 | 7.8 | 0.00 | 0.03 | 0.03 | 75 | 1014.5 |
| 20260503170526 | 64 | 298 | 1.7 | 5.2 | 0.00 | 0.03 | 0.03 | 77 | 1014.4 |
| 20260503150523 | 67 | 297 | 2.6 | 7.0 | 0.00 | 0.03 | 0.03 | 73 | 1014.6 |
| 20260503130521 | 64 | 303 | 4.3 | 11.3 | 0.00 | 0.03 | 0.03 | 80 | 1014.8 |
| 20260503110519 | 60 | 285 | 0.9 | 2.6 | 0.01 | 0.03 | 0.03 | 94 | 1015.3 |
| 20260503081529 | 61 | 228 | 1.7 | 7.0 | 0.00 | 0.21 | 0.02 | 89 | 1014.8 |
| 20260503080527 | 60 | 225 | 0.9 | 2.6 | 0.00 | 0.21 | 0.02 | 90 | 1014.8 |
| 20260503072540 | 58 | 226 | 0.9 | 2.6 | 0.00 | 0.22 | 0.02 | 97 | 1014.8 |
| 20260503071538 | 58 | 227 | 0.9 | 2.6 | 0.00 | 0.22 | 0.02 | 98 | 1014.7 |
| 20260503070516 | 57 | 235 | 0.9 | 2.6 | 0.00 | 0.22 | 0.02 | 99 | 1014.9 |
| 20260503054542 | 55 | 0.0 | 0.0 | 0.01 | 0.22 | 0.02 | 99 | 1014.3 | |
| 20260503053520 | 55 | 226 | 0.0 | 1.7 | 0.01 | 0.22 | 0.02 | 99 | 1014.3 |
| 20260503052518 | 56 | 225 | 0.0 | 0.9 | 0.00 | 0.21 | 0.01 | 99 | 1014.3 |
| 20260503051517 | 56 | 225 | 0.0 | 0.9 | 0.00 | 0.21 | 0.01 | 99 | 1014.2 |
| 20260503050535 | 56 | 232 | 0.0 | 0.9 | 0.00 | 0.23 | 0.01 | 99 | 1014.3 |
| 20260503045533 | 56 | 241 | 0.0 | 0.9 | 0.00 | 0.23 | 0.01 | 99 | 1014.3 |
| 20260503044531 | 56 | 233 | 0.0 | 0.9 | 0.00 | 0.23 | 0.01 | 99 | 1014.2 |
| 20260503043529 | 56 | 224 | 0.0 | 0.9 | 0.00 | 0.23 | 0.01 | 99 | 1014.3 |
| 20260503042527 | 56 | 223 | 0.0 | 0.9 | 0.00 | 0.23 | 0.01 | 99 | 1014.2 |
| 20260503041525 | 56 | 224 | 0.0 | 0.9 | 0.00 | 0.23 | 0.01 | 99 | 1014.2 |
| 20260503040524 | 57 | 226 | 0.0 | 1.7 | 0.00 | 0.23 | 0.01 | 99 | 1014.2 |
| 20260503035522 | 57 | 280 | 0.0 | 0.9 | 0.00 | 0.23 | 0.01 | 99 | 1014.2 |
| 20260503034540 | 57 | 271 | 0.0 | 0.9 | 0.00 | 0.23 | 0.01 | 99 | 1014.2 |
| 20260503033518 | 57 | 231 | 0.0 | 0.9 | 0.00 | 0.23 | 0.01 | 99 | 1014.3 |
| 20260503032516 | 57 | 229 | 0.9 | 1.7 | 0.00 | 0.23 | 0.01 | 99 | 1014.4 |
| 20260503031534 | 57 | 232 | 0.9 | 1.7 | 0.00 | 0.23 | 0.01 | 99 | 1014.4 |
| 20260503030533 | 57 | 229 | 0.9 | 1.7 | 0.00 | 0.23 | 0.01 | 99 | 1014.5 |
| 20260503025531 | 57 | 230 | 0.9 | 1.7 | 0.00 | 0.23 | 0.01 | 99 | 1014.5 |